SCP
0 0 0 0 0 0 0 0 0 0 0 0 0 0 0 0 0 0 0 0 0 0 0 0 0 0 0 0 0 0 0 0 0 0 0 0 0 0 0 0 0 0 0 0
0 0 0 0 0 0 0 0 0 0 0 0 0 0 0 0 0 0 0 0 0 0 0 0 0 0 0 0 0 0 0 0 0 0 0 0 0 0 0 0 0 0 0 0
0 0 0 0 0 0 0 0 0 0 0 0 0 0 0 0 0 0 0 0 0 0 0 0 0 0 0 0 0 0 0 0 0 0 0 0 0 0 0 0 0 0 0 0
0 0 0 0 0 0 0 0 0 0 0 0 0 0 0 0 0 0 0 0 0 0 0 0 0 0 0 0 0 0 0 0 0 0 0 0 0 0 0 0 0 0 0 0
0 0 0 0 0 0 0 0 0 0 0 0 0 0 0 0 0 0 0 0 0 0 0 0 0 0 0 0 0 0 0 0 0 0 0 0 0 0 0 0 0 0 0 0
0 0 0 0 0 0 0 0 0 0 0 0 0 0 0 0 0 0 0 0 0 0 0 0 0 0 0 0 0 0 0 0 0 0 0 0 0 0 0 0 0 0 0 0
0 0 0 0 0 0 0 0 0 0 0 0 0 0 0 0 0 0 0 0 0 0 0 0 0 0 0 0 0 0 0 0 0 0 0 0 0 0 0 0 0 0 0 0
0 0 0 0 0 0 0 0 0 0 0 0 0 0 0 0 0 0 0 0 0 0 0 0 0 0 0 0 0 0 0 0 0 0 0 0 0 0 0 0 0 0 0 0
0 0 0 0 0 0 0 0 0 0 0 0 0 0 0 0 0 0 0 0 0 0 0 0 0 0 0 0 0 0 0 0 0 0 0 0 0 0 0 0 0 0 0 0
0 0 0 0 0 0 0 0 0 0 0 0 0 0 0 0 0 0 0 0 0 0 0 0 0 0 0 0 0 0 0 0 0 0 0 0 0 0 0 0 0 0 0 0
0 0 0 0 0 0 0 0 0 0 0 0 0 0 0 0 0 0 0 0 0 0 0 0 0 0 0 0 0 0 0 0 0 0 0 0 0 0 0 0 0 0 0 0
0 0 0 0 0 0 0 0 0 0 0 0 0 0 0 0 0 0 0 0 0 0 0 0 0 0 0 0 0 0 0 0 0 0 0 0 0 0 0 0 0 0 0 0
0 0 0 0 0 0 0 0 0 0 0 0 0 0 0 0 0 0 0 0 0 0 0 0 0 0 0 0 0 0 0 0 0 0 0 0 0 0 0 0 0 0 0 0
0 0 0 0 0 0 0 0 0 0 0 0 0 0 0 0 0 0 0 0 0 0 0 0 0 0 0 0 0 0 0 0 0 0 0 0 0 0 0 0 0 0 0 0
0 0 0 0 0 0 0 0 0 0 0 0 0 0 0 0 0 0 0 0 0 0 0 0 0 0 0 0 0 0 0 0 0 0 0 0 0 0 0 0 0 0 0 0
0 0 0 0 0 0 0 0 0 0 0 0 0 0 0 0 0 0 0 0 0 0 0 0 0 0 0 0 0 0 0 0 0 0 0 0 0 0 0 0 0 0 0 0
0 0 0 0 0 0 0 0 0 0 0 0 0 0 0 0 0 0 0 0 0 0 0 0 0 0 0 0 0 0 0 0 0 0 0 0 0 0 0 0 0 0 0 0
0 0 0 0 0 0 0 0 0 0 0 0 0 0 0 0 0 0 0 0 0 0 0 0 0 0 0 0 0 0 0 0 0 0 0 0 0 0 0 0 0 0 0 0
0 0 0 0 0 0 0 0 0 0 0 0 0 0 0 0 0 0 0 0 0 0 0 0 0 0 0 0 0 0 0 0 0 0 0 0 0 0 0 0 0 0 0 0
0 0 0 0 0 0 0 0 0 0 0 0 0 0 0 0 0 0 0 0 0 0 0 0 0 0 0 0 0 0 0 0 0 0 0 0 0 0 0 0 0 0 0 0
0 0 0 0 0 0 0 0 0 0 0 0 0 0 0 0 0 0 0 0 0 0 0 0 0 0 0 0 0 0 0 0 0 0 0 0 0 0 0 -0 0 0 0 0
0 0 0 0 0 0 0 0 0 0 0 0 0 0 0 0 0 0 0 0 0 0 0 0 0 0 0 0 0 0 0 0 0 0 0 0 0 0 0 0 0 0 0 0
0 0 0 0 0 0 0 0 0 0 0 0 0 0 0 0 0 0 0 0 0 0 0 0 0 0 0 0 0 0 0 0 0 0 0 0 0 0 0 0 0 0 0 0
0 0 0 0 0 0 0 0 -0 0 0 0 0 0 0 0 0 0 0 0 0 0 0 0 0 0 0 0 0 0 0 0 0 0 0 0 0 0 0 0 0 0 0 0
0 0 0 0 -0 0 0 -0 -0 -0 0 0 0 0 0 0 0 0 0 0 0 0 0 0 0 0 0 0 0 0 0 0 0 0 0 0 0 0 0 0 0 0 0 0
0 0 0 0 0 0 0 -0 -0 -0 0 0 0 0 0 0 0 0 0 0 0 0 0 0 0 0 0 0 0 0 0 0 0 0 0 0 0 0 0 0 0 0 0 0
Wind_Speed
1 3 3 6 6 4 3 3 3 4 2 1 6 10 11 7 5 6 7 7 7 7 6 3 4 4 4 5 6 7 7 6 5 4 4 3 3 2 2 2 3 3 3 4
3 3 5 3 3 2 2 3 4 3 2 2 5 10 10 7 6 7 8 8 8 6 4 3 3 4 5 6 6 6 7 6 6 4 4 3 3 2 2 2 2 3 3 4
5 3 2 3 2 3 4 5 5 3 4 2 3 8 6 5 4 5 6 7 6 7 6 5 4 5 5 6 7 6 7 6 6 5 3 2 2 1 2 2 2 3 3 3
3 2 1 2 3 4 5 3 4 3 1 4 0 6 8 5 5 5 7 6 7 6 6 5 5 5 6 7 6 6 6 6 5 5 5 6 5 4 4 3 3 3 3 4
3 1 1 3 3 4 4 1 2 2 2 3 2 4 10 2 6 7 7 7 7 6 6 6 6 7 6 5 5 5 5 5 5 6 6 6 5 3 2 2 3 3 2 3
2 1 2 3 1 2 2 2 2 3 2 4 5 5 9 5 7 6 5 5 5 5 5 5 4 3 4 4 4 4 5 5 5 6 6 7 7 5 4 4 4 3 2 2
2 2 1 1 1 1 2 4 2 4 2 7 3 4 11 8 6 6 6 6 4 3 3 3 3 3 4 5 5 5 6 5 5 6 6 7 7 7 7 6 5 4 3 3
2 4 4 3 4 4 3 5 6 5 5 5 2 7 9 7 4 4 4 3 2 1 2 3 3 4 4 4 4 5 6 5 5 6 6 5 6 5 5 5 5 5 4 4
5 5 1 1 1 4 4 4 3 3 0 3 6 7 9 4 3 2 2 1 2 2 1 2 2 3 3 4 4 5 5 4 5 5 5 5 5 5 5 5 5 4 3 3
4 3 2 1 0 1 2 4 4 4 3 4 6 5 6 5 4 2 2 2 3 1 1 1 2 2 2 2 3 3 4 4 4 4 4 4 5 5 5 4 5 4 4 4
3 3 2 1 5 6 4 3 4 3 4 5 4 8 6 6 4 3 3 3 3 2 2 2 2 1 1 1 2 2 3 3 3 4 3 3 3 4 4 4 5 5 4 5
3 3 3 6 3 2 4 5 6 5 5 5 4 9 3 4 3 3 3 2 1 2 2 1 1 1 1 1 2 3 3 3 3 3 3 3 3 3 4 4 4 4 5 5
4 4 0 3 2 1 4 4 5 3 3 4 5 9 3 1 1 2 2 2 1 1 1 1 1 1 2 2 2 3 3 3 3 3 3 3 3 3 4 4 4 4 4 4
4 4 6 9 6 5 5 5 6 5 5 7 10 10 7 5 5 4 3 3 2 2 2 2 2 2 2 2 2 2 2 3 3 3 3 4 4 4 4 4 4 4 4 4
3 4 5 7 5 4 7 8 9 11 11 10 11 11 12 9 8 6 4 3 3 3 3 4 4 3 3 3 2 2 2 2 3 3 4 4 4 3 3 3 4 3 4 4
3 4 2 6 5 5 9 11 11 13 11 12 12 15 10 8 5 5 5 4 5 5 5 5 4 4 4 4 4 3 3 3 3 4 4 4 3 3 3 3 3 3 3 3
4 5 3 6 3 3 11 12 12 9 9 9 14 14 5 6 7 7 7 6 7 7 6 5 5 5 5 4 4 4 4 3 3 4 3 3 3 3 3 3 3 4 4 3
6 5 3 2 1 9 11 3 9 10 9 10 9 7 6 8 7 5 5 5 6 5 5 4 4 4 4 3 3 3 3 3 4 4 3 3 4 4 3 3 4 4 3 4
7 7 4 4 5 11 10 5 6 8 9 9 11 10 7 4 3 5 3 3 4 4 4 4 3 3 2 3 3 3 3 3 3 4 4 4 4 4 4 4 5 4 3 4
4 5 5 4 5 10 8 3 3 4 7 5 7 8 5 2 3 6 3 2 2 2 2 2 1 1 1 2 2 3 3 3 4 4 4 3 3 4 5 5 4 3 3 4
5 5 7 7 8 12 7 2 4 5 7 3 5 5 5 6 7 4 2 1 1 2 1 1 1 1 2 1 2 3 3 4 4 2 2 2 2 3 4 3 3 2 2 2
10 8 9 7 8 12 3 5 8 7 2 2 2 3 4 4 4 3 2 2 2 1 1 0 0 1 1 1 2 3 3 3 1 1 2 2 2 2 2 2 2 2 3 3
9 10 8 11 10 4 5 7 6 3 3 3 3 3 2 3 3 3 3 3 2 1 1 0 1 1 1 0 1 3 2 1 1 1 2 2 2 2 2 2 3 2 2 3
5 3 4 6 9 7 5 5 4 3 4 4 3 3 3 4 4 4 4 3 2 2 1 1 0 1 2 1 1 2 1 1 1 2 2 2 2 1 1 1 2 2 3 3
6 5 5 8 8 6 6 6 7 5 4 3 3 3 4 4 4 4 4 4 3 2 1 1 1 2 3 2 2 2 1 1 1 2 2 1 1 2 1 2 2 3 4 4
7 8 8 10 8 6 7 5 4 5 6 5 4 4 3 4 5 4 4 3 3 2 1 1 2 2 3 2 2 2 1 1 2 2 2 1 1 1 1 1 2 4 4 5
Wind_Direction
113 93 199 214 207 208 170 192 242 250 247 240 245 260 270 265 243 245 249 247 245 249 252 238 214 198 184 180 182 183 183 183 172 172 178 180 188 186 187 183 175 169 167 163
76 242 233 210 212 211 207 235 263 288 301 250 269 272 270 261 242 231 233 239 240 250 255 235 209 196 190 187 186 184 185 184 182 185 183 176 169 180 182 176 176 176 172 169
177 238 222 176 177 191 228 220 229 253 322 309 310 294 270 270 258 247 238 237 237 230 230 223 210 204 197 193 191 190 189 186 185 176 155 132 116 115 155 183 192 192 180 174
220 261 187 167 206 186 242 226 208 221 284 286 230 288 280 258 280 261 252 243 239 234 223 214 207 202 201 202 196 192 188 186 182 172 171 171 176 186 195 191 190 186 183 182
233 218 185 215 229 185 215 192 197 202 192 284 244 237 279 282 268 266 257 247 242 234 219 212 209 204 200 194 193 191 183 186 182 179 184 187 189 189 172 161 170 179 185 187
234 234 197 221 248 189 157 63 50 57 83 265 224 201 273 240 234 254 259 257 245 234 223 218 211 193 193 187 187 183 180 188 187 185 189 193 189 177 165 173 182 188 188 187
289 261 241 137 105 47 106 100 29 351 336 250 220 209 252 250 239 235 251 261 254 229 216 209 203 198 197 192 190 185 182 190 190 188 197 199 194 184 185 188 190 189 192 201
206 266 218 196 184 179 195 162 170 204 231 275 255 233 254 261 257 252 255 262 274 236 213 207 202 196 195 195 190 185 185 190 190 192 202 200 195 191 195 192 191 196 202 205
191 248 312 207 209 160 166 205 188 141 90 285 265 272 292 275 289 285 274 263 257 241 229 222 202 192 190 189 190 187 186 190 193 196 199 200 198 193 195 192 192 197 199 193
169 230 273 293 76 238 183 158 128 155 182 249 276 260 247 264 271 290 293 266 261 258 243 209 199 195 194 193 187 180 186 192 192 193 197 200 201 199 195 187 192 194 194 187
170 185 272 260 204 198 174 184 177 169 182 186 252 263 225 220 221 224 246 246 239 239 234 231 227 211 184 161 166 182 192 190 192 193 194 194 197 195 191 194 200 198 194 190
173 152 232 241 241 227 206 200 174 181 226 213 227 263 265 215 216 206 233 249 241 235 226 220 217 201 169 175 186 194 196 195 201 192 185 193 188 183 187 199 203 195 196 196
162 151 92 329 296 248 236 225 211 196 173 198 213 258 287 356 287 267 247 247 247 239 221 216 199 213 217 213 207 204 201 202 199 182 180 185 190 192 199 205 204 195 195 196
148 175 196 216 227 192 223 228 206 188 209 229 232 251 276 273 270 277 258 241 230 225 223 223 224 230 231 227 220 214 213 202 193 185 184 193 204 207 208 207 202 200 196 195
151 213 236 259 270 242 237 233 215 216 220 226 246 245 253 255 258 263 259 250 243 244 233 226 227 230 232 233 231 222 216 203 189 188 196 206 207 203 200 203 205 199 197 201
172 205 233 273 263 255 263 247 229 231 231 238 256 263 255 255 253 258 253 238 239 243 240 235 232 227 227 225 222 219 219 209 186 196 210 209 198 200 205 211 206 199 202 203
183 173 196 259 288 319 264 231 210 215 212 205 232 247 254 252 242 240 239 239 241 243 239 232 227 224 229 229 217 214 215 201 190 199 208 206 200 205 213 211 203 206 210 206
177 174 184 230 64 241 246 203 199 217 231 220 239 256 247 248 252 250 243 237 247 246 243 241 234 235 233 229 221 215 199 188 191 201 208 208 204 209 208 203 213 219 215 212
187 178 180 186 231 268 280 232 187 201 249 223 232 252 261 269 292 275 255 243 246 247 243 243 238 235 228 222 211 191 194 189 192 208 214 213 206 207 204 209 219 222 215 218
178 176 181 193 214 240 251 212 188 161 261 236 218 239 245 186 247 264 255 260 265 259 249 246 241 216 220 237 197 179 195 195 213 221 221 215 206 208 212 216 219 221 218 221
180 195 205 210 232 257 255 208 135 182 247 232 206 218 207 206 231 256 277 277 255 257 261 241 197 212 234 224 178 184 194 216 232 228 214 207 210 215 218 219 217 211 213 213
183 187 202 191 219 248 208 144 186 221 246 217 220 218 217 234 251 262 271 271 273 285 302 230 216 268 279 191 178 193 219 240 236 199 198 208 214 215 206 202 211 203 199 210
202 196 191 199 220 243 182 199 216 202 216 232 233 240 216 237 253 264 268 267 268 258 270 279 234 284 320 289 193 210 243 249 205 190 207 213 206 203 198 196 200 203 202 212
244 216 205 237 254 250 236 241 246 222 225 238 237 236 220 239 249 258 261 264 267 266 254 248 234 272 289 299 276 253 270 238 182 204 222 216 200 204 204 212 207 208 212 218
219 188 217 248 265 284 264 236 236 239 236 236 241 233 222 226 248 252 257 258 257 257 256 224 225 251 270 288 289 294 284 204 197 212 217 216 210 205 212 227 230 227 233 225
206 195 201 235 233 223 250 244 229 222 229 225 226 248 242 221 235 248 253 256 254 254 253 244 242 250 268 276 279 292 293 215 195 218 226 219 213 213 210 229 287 269 258 262